Regional Weather Roundup
Issued by NWS Albany, NY

Home | Current Version | Previous Version | Text Only | Print | Product List | Glossary On
Versions: 1 2 3 4 5 6 7 8 9 10 11 12 13 14 15 16 17 18 19 20 21 22 23 24 25 26 27 28 29 30 31 32 33 34 35 36 37 38 39 40 41 42 43 44 45 46 47 48 49 50
000
ASUS41 KALY 281410
RWRALY

NEW YORK STATE HOURLY WEATHER ROUNDUP
NATIONAL WEATHER SERVICE ALBANY NY
1000 AM EDT WED JUN 28 2017

NOTE: "FAIR" INDICATES FEW OR NO CLOUDS BELOW 12,000 FEET WITH NO
SIGNIFICANT WEATHER AND/OR NO OBSTRUCTIONS TO VISIBILITY.

NYZ032-033-038>043-046>054-057>066-NYZ062>081-082-084-281500-
EAST


CITY           SKY/WX    TMP DP  RH WIND       PRES   REMARKS
ALBANY         MOSUNNY   68  52  56 W10       30.08S
GLENS FALLS    SUNNY     64  54  69 S8        30.04F
POUGHKEEPSIE   SUNNY     67  51  56 W5        30.09F
NEWBURGH       SUNNY     66  54  63 W5        30.12F
MONTGOMERY     SUNNY     68  51  54 NW7       30.11S
WHITE PLAINS   SUNNY     68  50  52 NW10      30.11S
ISLIP          MOSUNNY   70  51  51 NW9       30.10S
NEW YORK CITY  MOSUNNY   69  52  54 NW10      30.11S
CENTRAL PARK   SUNNY     68  52  56 MISG      30.14F
$$

NYZ005>009-017-018-044>046-055-056-281500-
CENTRAL


CITY           SKY/WX    TMP DP  RH WIND       PRES   REMARKS
FULTON         SUNNY     67  55  65 VRB6      30.08S
SYRACUSE       MOSUNNY   66  55  67 W12       30.08S
ROME           MOSUNNY   63  56  78 W7        30.09F
ELMIRA         SUNNY     65  52  62 VRB7      30.12S
BINGHAMTON     SUNNY     60  51  72 W9        30.12F
MONTICELLO     SUNNY     63  54  72 W8        30.14S
$$

NYZ026>034-041>043-087-281500-
NORTH


CITY           SKY/WX    TMP DP  RH WIND       PRES   REMARKS
WATERTOWN      SUNNY     66  52  60 SW12      30.05F
FORT DRUM      NOT AVBL
OGDENSBURG     FAIR      61  55  78 SW8       30.03S
MASSENA        CLOUDY    64  55  72 SW12      30.03R
SARANAC LAKE   MOSUNNY   60  49  66 VRB7G17   30.03S
PLATTSBURGH    MOSUNNY   66  51  58 SW6       30.00S
$$

NYZ001>004-010>016-019>021-085-281500-
WEST


CITY           SKY/WX    TMP DP  RH WIND       PRES   REMARKS
NIAGARA FALLS  SUNNY     71  53  52 SW14      30.09R
BUFFALO        MOSUNNY   67  57  70 SW14G24   30.10R
DUNKIRK        SUNNY     68  58  70 SW15G23   30.13R
JAMESTOWN      SUNNY     61  50  67 SW5       30.16R
WELLSVILLE     SUNNY     64  50  60 W9        30.17R
ROCHESTER      MOSUNNY   69  54  58 W9        30.09S
PENN YAN       SUNNY     66  49  54 SW7       30.12R
$$

             KEY
       WCI = WIND CHILL INDEX
       VSB = VISIBILITY
       HX  = HEAT INDEX
$$



USA.gov is the U.S. government's official web portal to all federal, state and local government web resources and services.